Change the Weather History Date:

Monday, March 4, 2013

  Actual Average Record
Temperature  
Mean Temperature 26 °F 33 °F  
Max Temperature 36 °F 42 °F 76 °F (1983)
Min Temperature 15 °F 25 °F -4 °F (2014)
Degree Days  
Heating Degree Days 39 32  
Month to date heating degree days 155 130  
Since 1 July heating degree days 4611 4706  
Cooling Degree Days 0 0  
Month to date cooling degree days 0 0  
Year to date cooling degree days 0 0  
Moisture  
Dew Point 15 °F    
Average Humidity 66    
Maximum Humidity 88    
Minimum Humidity 43    
Precipitation  
Precipitation 0.00 in 0.07 in 1.31 in (1974)
Month to date precipitation T 0.30  
Year to date precipitation 6.44 4.42  
Snow  
Snow 0.00 in 0.30 in - ()
Month to date snowfall T 1.0  
Since 1 July snowfall 22.5 31.5  
Snow Depth 0.00 in    
Sea Level Pressure  
Sea Level Pressure 30.12 in    
Wind  
Wind Speed 3 mph (WNW)    
Max Wind Speed 9 mph    
Max Gust Speed 13 mph    
Visibility 10 miles    
Events      
T = Trace of Precipitation, MM = Missing Value Source: NWS Daily Summary

Daily Weather History Graph

Daily Weather History Graph

Search for Another Location

Airport or City:

Trip Planner

Search our weather history database for the weather conditions in past years. The results will help you decide how hot, cold, wet, or windy it might be!

Date:

Astronomy

Mar. 04, 2013 Rise Set
Actual Time 7:04 AM EST 6:29 PM EST
Civil Twilight 6:37 AM EST 6:57 PM EST
Nautical Twilight 6:04 AM EST 7:29 PM EST
Astronomical Twilight 5:32 AM EST 8:01 PM EST
Moon 1:16 AM EST (3/4) 11:07 AM EST (3/4)
Length of Visible Light 12h 20m
Length of Day
11h 24m
Waning Gibbous, 52% of the Moon is Illuminated
Mar 4
Waning Gibbous
Mar 4
Last Quarter
Mar 11
New
Mar 19
First Quarter
Mar 27
Full

Hourly Weather History & Observations

Time (EST) Temp. Windchill Dew Point Humidity Pressure Visibility Wind Dir Wind Speed Gust Speed Precip Events Conditions
12:52 AM 21.9 °F 14.5 °F 14.0 °F 72% 30.09 in 10.0 mi WNW 5.8 mph - N/A   Clear
1:52 AM 21.9 °F 15.7 °F 14.0 °F 72% 30.11 in 10.0 mi NW 4.6 mph - N/A   Clear
3:52 AM 19.0 °F 13.9 °F 12.9 °F 77% 30.10 in 10.0 mi NW 3.5 mph - N/A   Clear
4:52 AM 17.1 °F 10.0 °F 12.0 °F 81% 30.13 in 10.0 mi West 4.6 mph - N/A   Clear
5:52 AM 15.8 °F 10.2 °F 12.2 °F 86% 30.11 in 10.0 mi West 3.5 mph - N/A   Clear
6:52 AM 17.1 °F - 12.0 °F 81% 30.15 in 10.0 mi Calm Calm - N/A   Clear
7:52 AM 16.0 °F 8.8 °F 12.0 °F 84% 30.17 in 10.0 mi WSW 4.6 mph - N/A   Clear
8:52 AM 21.9 °F 17.2 °F 15.1 °F 75% 30.18 in 10.0 mi NNW 3.5 mph - N/A   Clear
9:52 AM 25.0 °F - 15.1 °F 66% 30.18 in 10.0 mi Calm Calm - N/A   Clear
10:52 AM 28.9 °F - 15.1 °F 56% 30.17 in 10.0 mi Calm Calm - N/A   Clear
11:52 AM 30.9 °F 25.2 °F 15.1 °F 52% 30.15 in 10.0 mi WSW 5.8 mph - N/A   Clear
12:52 PM 32.0 °F 27.5 °F 15.1 °F 50% 30.14 in 10.0 mi Variable 4.6 mph - N/A   Clear
1:52 PM 34.0 °F 31.0 °F 14.0 °F 44% 30.12 in 10.0 mi Variable 3.5 mph - N/A   Clear
2:52 PM 35.1 °F 30.1 °F 15.1 °F 44% 30.11 in 10.0 mi WSW 5.8 mph - N/A   Clear
3:52 PM 35.1 °F 30.1 °F 15.1 °F 44% 30.11 in 10.0 mi Variable 5.8 mph - N/A   Clear
4:52 PM 35.1 °F - 15.1 °F 44% 30.09 in 10.0 mi Calm Calm - N/A   Clear
5:52 PM 33.1 °F 27.7 °F 18.0 °F 54% 30.10 in 10.0 mi North 5.8 mph - N/A   Clear
6:52 PM 30.9 °F 27.5 °F 17.1 °F 57% 30.10 in 10.0 mi NNE 3.5 mph - N/A   Clear
7:52 PM 28.9 °F - 16.0 °F 58% 30.10 in 10.0 mi Calm Calm - N/A   Clear
8:52 PM 28.0 °F - 17.1 °F 63% 30.10 in 10.0 mi Calm Calm - N/A   Clear
9:52 PM 27.0 °F 23.0 °F 19.0 °F 72% 30.11 in 10.0 mi ENE 3.5 mph - N/A   Partly Cloudy
10:52 PM 27.0 °F - 19.0 °F 72% 30.12 in 10.0 mi Calm Calm - N/A   Partly Cloudy
11:52 PM 26.1 °F - 19.0 °F 75% 30.13 in 10.0 mi Calm Calm - N/A   Clear